Regional Weather Roundup
Issued by NWS Little Rock, AR

Home | Current Version | Previous Version | Text Only | Print | Product List | Glossary On
Versions: 1 2 3 4 5 6 7 8 9 10 11 12 13 14 15 16 17 18 19 20 21 22 23 24 25 26 27 28 29 30 31 32 33 34 35 36 37 38 39 40 41 42 43 44 45 46 47 48 49 50
000
ASUS44 KLZK 041705
RWRLZK

WEATHER ROUNDUP FOR ARKANSAS
NATIONAL WEATHER SERVICE LITTLE ROCK AR
1200 PM CDT FRI SEP 04 2015

NOTE: "FAIR" INDICATES FEW OR NO CLOUDS BELOW 12,000 FEET WITH NO
SIGNIFICANT WEATHER AND/OR OBSTRUCTIONS TO VISIBILITY.

ARZ001-003-010-029-041800-
NORTHWEST ARKANSAS

CITY           SKY/WX    TMP DP  RH WIND       PRES   REMARKS
FAYETTEVILLE   MOSUNNY   85  69  58 VRB6      30.06S HX  89
FORT SMITH     SUNNY     89  69  51 VRB3      30.00F HX  93
HARRISON       SUNNY     86  70  58 S9        30.08S HX  90
BENTONVILLE    MOSUNNY   88  66  48 S9        30.07S HX  90
ROGERS         MOSUNNY   85  68  56 S7        30.07S HX  88
SILOAM SPGS    MOSUNNY   88  66  48 SW8       30.04S HX  90
HIGHFILL       SUNNY     86  71  60 S9        30.06S HX  91
SPRINGDALE     MOSUNNY   86  70  58 S9        30.08F HX  90
$$

ARZ004-005-016-041800-
NORTH CENTRAL ARKANSAS

CITY           SKY/WX    TMP DP  RH WIND       PRES   REMARKS
BATESVILLE     MOSUNNY   90  72  55 CALM      30.04S HX  96
FLIPPIN        SUNNY     88  66  48 SE6       30.04S HX  90
MTN HOME       SUNNY     87  69  54 VRB6      30.06S HX  91
$$

ARZ040-041-041800-
WEST CENTRAL ARKANSAS

CITY           SKY/WX    TMP DP  RH WIND       PRES   REMARKS
MENA           CLOUDY    91  68  46 SW7       30.03S HX  95
MOUNT IDA      MOSUNNY   92  66  42 CALM      30.00S HX  94
$$

ARZ009-017-025-026-028-041800-
NORTHEAST ARKANSAS

CITY           SKY/WX    TMP DP  RH WIND       PRES   REMARKS
JONESBORO      SUNNY     89  70  53 VRB5      30.03S HX  94
NEWPORT        SUNNY     91  72  53 CALM      30.05S HX  98
WALNUT RIDGE   SUNNY     90  70  51 CALM      30.03S HX  95
BLYTHEVILLE    SUNNY     92  73  53 CALM      30.03S HX 100
$$

ARZ022-023-033-042-044-041800-
CENTRAL ARKANSAS

CITY           SKY/WX    TMP DP  RH WIND       PRES   REMARKS
LITTLE ROCK    MOSUNNY   93  68  43 SE6       30.01F HX  97
N LITTLE ROCK  MOSUNNY   91  71  51 E7        30.01F HX  96
JACKSONVILLE   MOSUNNY   91  68  46 NE5       30.01S HX  95
SEARCY         MOSUNNY   90  72  55 VRB6      30.04S HX  97
HOT SPRINGS    SUNNY     92  65  40 SE8       30.01F HX  94
RUSSELLVILLE   SUNNY     90  70  51 CALM      30.01F HX  95
$$

ARZ036-041800-
EAST ARKANSAS

CITY           SKY/WX    TMP DP  RH WIND       PRES   REMARKS
WEST MEMPHIS   MOSUNNY   90  73  57 MISG      30.01F HX  98
$$

ARZ050-053-066-070-073-041800-
SOUTHWEST ARKANSAS

CITY           SKY/WX    TMP DP  RH WIND       PRES   REMARKS
ARKADELPHIA    FAIR      94  72  48 S7        30.00F HX 102
CAMDEN         SUNNY     91  70  49 CALM      29.99F HX  97
TEXARKANA      SUNNY     92  71  50 S9        29.99F HX  98
EL DORADO      MOSUNNY   91  70  49 W3        30.00F HX  96
DE QUEEN       MOSUNNY   90  72  55 SW7       29.98F HX  97
$$

ARZ056-057-069-041800-
SOUTHEAST ARKANSAS

CITY           SKY/WX    TMP DP  RH WIND       PRES   REMARKS
PINE BLUFF     SUNNY     91  68  46 VRB3      30.00F HX  95
STUTTGART      MOSUNNY   90  70  51 SE5       30.02S HX  95
MONTICELLO     SUNNY     93  72  50 NE6       29.99F HX 101

$$




USA.gov is the U.S. government's official web portal to all federal, state and local government web resources and services.